Location: Pebble Beach Sunset Acres
(33.0837°N, 96.4508°W)
Time: 07:34:01
(UTC+00:00)

Cosmos 1500 Rocket - Pass Details

Date: 08 December 2021
Orbit: 602 x 632 km, 82.5° (Epoch: 17 January)

Event Time Altitude Azimuth Distance (km) Brightness Sun altitude
Rises 12:22:02 0° 202° (SSW) 2,901 7.0 -11.4°
Reaches altitude 10° 12:24:22 10° 210° (SSW) 2,001 6.1 -10.9°
Maximum altitude 12:28:31 39° 280° (W) 946 4.0 -10.1°
Drops below altitude 10° 12:32:44 10° 350° (N) 2,018 5.9 -9.3°
Sets 12:35:06 0° 358° (N) 2,929 6.8 -8.8°
